Wind_Speed
11 10 9 9 10 9 9 7 8 9 9 9 10 14 14 16 18 18 18 14 13 11 10 12 13 13 13 13 13 14 13 13 13 13 13 12 11 10 10 11 10 10 10
11 11 11 10 11 11 12 15 13 13 15 17 18 16 17 11 17 20 22 18 14 16 15 14 15 14 15 15 15 16 15 14 14 14 13 13 13 12 12 12 12 12 12
15 15 14 13 12 11 14 17 18 20 21 21 23 22 20 16 15 21 21 22 19 16 16 14 15 15 16 17 17 18 18 16 16 16 15 14 15 15 14 14 14 14 14
13 15 13 16 14 12 13 15 17 19 18 15 14 19 22 21 20 17 22 23 22 19 18 17 17 17 17 19 20 20 21 19 19 18 17 17 17 17 16 16 16 16 15
10 10 12 15 13 15 16 16 16 17 20 16 16 16 19 21 24 20 18 19 20 19 19 19 19 19 20 20 21 21 22 22 21 21 18 20 20 19 18 19 19 19 18
10 11 11 14 14 15 17 18 18 17 16 16 16 17 19 21 17 21 16 19 17 16 16 16 16 19 20 22 22 21 21 24 24 25 22 20 20 21 22 22 22 22 21
5 7 7 9 12 11 13 15 17 16 18 18 18 19 19 19 18 22 20 19 19 17 16 16 17 18 18 21 20 22 24 24 25 27 28 25 22 20 22 25 24 24 24
5 7 9 11 12 15 16 15 14 16 17 17 19 17 12 18 21 22 19 21 18 16 17 18 16 17 19 19 20 22 21 23 28 26 25 27 25 22 20 24 25 24 26
7 9 12 14 16 16 14 14 14 16 15 17 18 15 6 10 15 15 20 15 15 18 16 17 16 17 18 16 17 18 21 21 24 27 29 32 21 24 23 24 24 24 26
9 12 15 14 11 10 10 12 13 13 15 16 18 20 20 10 7 7 3 8 11 16 20 20 16 18 19 15 15 15 16 18 17 18 23 20 20 21 19 21 22 22 23
12 12 13 12 9 9 10 10 11 12 13 13 16 18 19 20 16 11 13 11 4 6 7 13 16 15 15 13 11 9 9 14 19 24 21 23 20 15 13 14 15 17 19
12 12 11 9 7 7 7 5 3 5 8 9 12 15 15 18 18 20 17 17 11 6 7 9 9 8 8 10 9 10 11 8 12 13 14 18 18 14 15 18 19 18 21
9 7 7 6 4 5 4 4 3 0 2 3 6 9 12 14 14 12 17 17 15 11 9 8 7 5 4 6 11 10 12 12 15 16 16 17 17 15 20 19 21 23 25
6 8 7 8 5 3 3 3 3 2 2 3 4 6 8 9 8 12 10 10 11 12 12 10 8 6 5 4 6 6 9 13 10 9 8 11 17 18 20 22 23 24 23
8 8 9 7 7 6 3 3 2 2 3 2 3 5 6 7 9 12 13 13 11 9 12 11 9 7 7 7 9 11 12 13 13 13 15 15 15 15 15 16 17 18 18
6 8 9 8 6 6 6 6 6 6 5 3 2 2 4 4 5 8 9 11 13 13 9 13 14 11 9 8 8 11 12 12 12 11 10 11 11 11 10 10 10 7 4
9 10 11 10 9 8 8 7 7 6 5 4 5 5 3 3 2 5 8 10 8 12 14 12 12 9 8 7 7 8 10 9 7 5 5 5 4 5 6 6 8 9 9
9 10 11 11 11 10 9 8 8 9 8 8 8 5 3 3 3 3 4 7 7 8 11 14 12 8 8 8 7 8 8 7 6 4 5 6 5 6 6 6 6 6 4
8 10 10 12 12 11 12 12 10 10 10 9 8 7 7 6 4 2 3 4 5 7 9 11 13 10 10 9 7 9 6 3 2 3 3 4 5 5 5 5 5 5 4
6 7 8 10 11 10 11 11 11 11 10 10 10 10 10 9 8 8 7 5 3 1 4 7 9 11 10 9 8 6 4 2 2 2 4 5 3 4 4 4 5 5 4
3 5 6 7 8 8 10 10 10 11 12 12 12 12 11 12 11 11 9 10 9 6 4 6 7 9 10 9 7 5 4 4 3 3 5 3 2 3 3 2 3 4 4
3 4 5 5 5 6 10 11 11 11 11 11 11 12 11 11 11 10 9 9 9 9 7 6 4 4 4 5 5 6 5 3 6 3 2 1 1 1 1 0 1 2 3
4 3 3 2 2 4 7 9 10 10 10 10 11 12 11 12 12 11 10 8 7 6 6 6 3 2 3 4 5 6 6 4 5 3 2 2 2 2 2 2 1 1 2
4 5 4 2 2 1 4 7 9 10 8 8 8 9 10 11 11 11 9 7 6 6 6 5 3 4 2 3 4 4 5 5 5 4 2 0 1 1 1 2 2 3 5
4 4 3 4 5 2 1 3 6 9 7 6 6 6 6 7 8 9 8 7 5 5 7 6 6 7 6 4 3 2 2 3 5 4 3 1 2 2 2 3 4 6 7
8 4 3 4 5 5 3 1 2 5 6 7 7 5 4 4 3 5 6 5 3 4 5 5 5 5 7 11 7 6 7 7 9 7 6 5 6 5 3 4 4 5 5
Wind_Direction
251 260 250 244 249 253 251 258 264 271 266 260 257 237 239 235 234 236 236 241 242 241 251 253 246 238 235 234 234 234 231 232 232 229 223 225 231 231 229 228 228 224 221
267 261 262 268 270 269 268 275 271 264 270 267 264 248 230 251 251 240 241 243 243 245 245 258 247 246 241 241 242 240 238 239 240 239 235 229 233 235 237 236 235 233 231
252 261 254 259 262 266 266 267 266 262 273 268 260 251 238 263 248 247 244 246 245 249 248 249 244 249 246 242 244 245 246 248 244 239 239 241 241 242 242 242 243 242 241
239 240 254 269 266 273 277 270 267 268 269 264 256 249 250 254 249 252 245 248 247 246 251 254 252 260 252 249 248 246 247 250 246 244 245 244 245 244 245 244 245 246 247
252 255 263 271 266 274 271 266 262 267 259 259 259 256 246 256 262 246 242 252 252 248 252 261 260 258 260 257 252 249 251 250 247 247 253 252 247 248 248 249 249 246 247
253 272 291 277 283 275 271 269 269 267 258 255 260 261 251 249 237 236 239 243 248 253 256 262 265 270 267 260 261 259 255 253 250 247 250 255 250 251 252 249 250 254 252
294 272 286 279 280 281 290 274 262 259 251 250 258 261 249 244 244 236 237 247 247 251 257 260 268 272 273 269 268 263 264 263 251 249 248 250 254 255 252 251 251 253 257
262 285 294 288 285 287 292 285 278 262 250 245 252 259 255 243 246 234 238 246 252 256 254 258 268 275 279 277 266 269 269 266 269 265 247 248 253 256 260 253 252 254 256
307 306 302 300 292 288 285 281 273 265 255 247 242 235 237 233 249 264 246 264 258 260 260 256 268 278 285 278 275 268 267 262 260 269 264 263 238 254 257 256 254 257 259
306 308 308 311 305 295 291 284 275 260 251 245 240 232 237 252 249 256 223 251 269 268 261 245 263 275 272 271 274 278 284 279 265 280 282 273 263 263 255 258 255 258 261
312 316 317 317 305 304 307 305 280 253 244 238 238 237 235 235 238 255 270 268 350 301 241 240 261 269 267 271 278 278 266 279 282 283 283 264 267 268 272 263 266 269 273
323 327 325 317 309 314 326 336 332 236 237 240 238 232 235 239 247 230 254 260 249 310 259 253 257 267 266 253 253 258 277 269 282 270 265 266 258 257 256 257 261 267 272
328 339 351 346 323 331 1 27 35 198 241 235 219 221 232 240 242 242 240 245 247 266 252 255 257 260 264 260 241 254 250 280 294 279 263 257 251 261 264 266 268 273 278
9 15 22 22 20 12 23 37 33 65 113 170 183 198 211 217 228 223 231 222 235 232 234 223 235 248 231 244 205 260 248 284 290 283 247 265 260 274 276 278 281 284 287
45 31 32 44 44 51 42 19 30 63 76 133 175 197 210 223 230 227 224 224 218 204 219 225 212 219 230 239 248 275 269 271 275 280 276 286 285 288 290 290 288 290 296
48 37 36 41 38 42 43 47 57 64 52 91 136 198 220 228 220 216 217 224 230 220 210 231 230 235 241 256 269 280 281 278 284 288 292 299 303 302 303 302 300 317 343
50 42 36 39 43 47 49 54 57 56 49 60 75 76 98 119 178 204 219 228 244 208 214 221 221 223 228 249 267 270 278 285 296 293 303 299 308 310 303 310 309 312 316
51 49 44 44 56 59 60 63 62 62 58 55 54 53 82 99 102 145 202 222 229 228 232 230 220 231 231 255 261 273 254 245 244 265 289 302 315 329 339 355 352 338 347
49 50 52 51 57 64 65 69 68 67 64 63 60 58 65 66 76 104 199 210 216 223 230 240 218 213 228 240 239 238 227 219 249 271 319 342 335 347 8 3 356 6 21
44 46 49 55 61 63 64 65 64 62 62 64 63 67 74 76 68 65 67 81 91 184 218 212 211 213 214 233 226 218 222 225 293 319 320 321 336 341 334 318 330 339 347
23 34 40 50 58 59 68 60 56 57 60 60 62 62 63 64 67 69 68 73 68 70 134 175 193 207 215 198 203 240 238 268 265 281 302 311 341 345 347 29 41 35 27
339 8 18 39 48 52 60 59 54 53 58 62 67 64 66 70 68 64 62 63 71 74 87 119 141 176 198 225 261 270 260 272 307 302 113 51 119 220 248 289 49 34 12
313 323 336 352 46 65 70 64 51 46 51 59 65 64 64 69 71 67 66 67 72 73 80 113 130 195 250 270 279 269 235 271 304 212 169 249 232 232 238 218 186 67 35
284 308 294 279 278 84 80 66 47 37 39 50 61 61 60 60 62 57 52 58 69 82 93 107 136 144 209 269 278 249 246 259 241 197 178 276 235 191 148 125 101 89 78
237 259 274 243 240 228 88 66 43 35 41 52 44 46 50 47 49 49 34 39 58 69 87 88 90 82 57 11 311 278 255 258 255 259 259 202 172 156 134 125 116 106 104
210 227 281 241 239 244 254 269 16 35 49 55 47 38 21 24 32 31 21 26 28 61 79 79 72 55 30 16 359 271 263 271 255 266 270 254 221 219 236 207 162 126 118
Height
1558 1557 1558 1559 1560 1559 1560 1561 1562 1563 1564 1565 1566 1567 1568 1568 1569 1570 1571 1572 1574 1575 1577 1576 1578 1578 1579 1580 1582 1583 1584 1585 1586 1587 1587 1588 1589 1590 1591 1592 1592 1593 1593
1554 1555 1556 1557 1557 1557 1557 1558 1559 1560 1561 1561 1562 1563 1564 1565 1566 1567 1568 1570 1571 1572 1574 1575 1575 1576 1578 1578 1579 1581 1582 1583 1584 1585 1586 1586 1587 1588 1589 1590 1591 1591 1592
1552 1553 1554 1555 1555 1554 1554 1555 1555 1556 1557 1557 1557 1558 1560 1562 1563 1565 1565 1567 1568 1569 1570 1571 1573 1574 1575 1575 1576 1578 1579 1580 1582 1583 1583 1584 1585 1586 1587 1588 1589 1590 1590
1549 1550 1551 1552 1552 1551 1552 1552 1552 1552 1552 1552 1552 1554 1556 1558 1559 1561 1563 1564 1565 1566 1567 1569 1571 1572 1572 1573 1573 1574 1574 1577 1579 1579 1580 1581 1581 1583 1584 1585 1586 1587 1587
1548 1550 1549 1550 1549 1549 1549 1549 1549 1549 1549 1549 1550 1551 1552 1553 1554 1557 1558 1561 1562 1563 1564 1566 1567 1568 1568 1568 1569 1570 1571 1572 1574 1576 1577 1577 1578 1579 1580 1581 1582 1583 1583
1547 1547 1547 1547 1546 1545 1545 1545 1544 1544 1545 1546 1546 1546 1547 1548 1549 1552 1554 1557 1559 1559 1561 1562 1563 1564 1564 1564 1565 1566 1566 1568 1569 1570 1572 1573 1573 1574 1575 1576 1578 1579 1579
1544 1545 1544 1543 1542 1542 1541 1539 1539 1539 1539 1541 1542 1542 1543 1545 1546 1548 1550 1553 1554 1556 1557 1558 1560 1560 1560 1560 1560 1561 1561 1562 1563 1565 1566 1568 1568 1567 1569 1571 1573 1573 1575
1544 1543 1542 1541 1539 1538 1537 1535 1533 1533 1534 1536 1537 1539 1539 1542 1543 1544 1547 1548 1550 1552 1553 1555 1556 1557 1557 1556 1557 1556 1557 1557 1552 1555 1560 1562 1565 1563 1563 1564 1567 1568 1569
1543 1541 1540 1539 1536 1534 1532 1531 1529 1529 1529 1532 1533 1536 1536 1535 1537 1540 1542 1544 1545 1548 1549 1551 1552 1553 1552 1552 1552 1552 1552 1552 1552 1553 1553 1526 1553 1556 1556 1559 1560 1562 1563
1542 1540 1538 1535 1533 1531 1529 1528 1526 1525 1526 1527 1530 1532 1534 1536 1536 1538 1539 1540 1542 1543 1544 1547 1549 1549 1549 1548 1549 1549 1549 1550 1550 1549 1548 1550 1551 1549 1548 1552 1553 1555 1557
1540 1538 1535 1532 1531 1529 1527 1525 1522 1522 1522 1524 1526 1528 1530 1533 1535 1535 1536 1537 1540 1541 1541 1544 1546 1546 1546 1547 1547 1546 1546 1546 1545 1545 1544 1545 1546 1546 1546 1548 1549 1549 1550
1538 1535 1533 1531 1530 1528 1526 1523 1521 1521 1521 1521 1523 1525 1527 1530 1531 1533 1535 1537 1538 1539 1541 1543 1544 1544 1544 1544 1544 1542 1542 1542 1542 1541 1541 1542 1543 1541 1544 1545 1545 1544 1546
1536 1535 1532 1530 1529 1527 1525 1524 1522 1522 1521 1520 1521 1523 1526 1528 1530 1532 1533 1534 1535 1540 1540 1541 1542 1542 1542 1541 1541 1541 1540 1541 1540 1539 1539 1539 1540 1541 1541 1541 1541 1541 1541
1536 1534 1531 1530 1528 1527 1526 1524 1523 1522 1521 1521 1521 1522 1524 1525 1526 1528 1530 1532 1534 1536 1538 1539 1540 1540 1541 1541 1540 1540 1540 1540 1539 1539 1538 1539 1538 1538 1538 1537 1536 1536 1535
1537 1535 1532 1530 1529 1528 1527 1525 1524 1523 1522 1521 1521 1522 1523 1523 1524 1525 1528 1530 1531 1533 1536 1537 1538 1539 1540 1540 1540 1540 1540 1540 1539 1537 1537 1536 1535 1534 1533 1533 1532 1531 1530
1537 1536 1533 1531 1530 1528 1528 1526 1525 1524 1523 1522 1521 1521 1522 1522 1523 1525 1527 1528 1530 1531 1532 1534 1536 1537 1538 1540 1540 1539 1538 1538 1537 1536 1535 1534 1533 1532 1531 1531 1530 1529 1529
1538 1536 1535 1532 1531 1530 1529 1528 1527 1526 1525 1524 1523 1522 1522 1522 1523 1524 1525 1526 1528 1528 1530 1532 1534 1535 1537 1538 1539 1538 1538 1537 1536 1536 1535 1534 1533 1532 1532 1531 1530 1529 1528
1540 1538 1536 1534 1533 1532 1532 1531 1529 1528 1527 1526 1525 1525 1524 1523 1524 1524 1525 1526 1527 1528 1529 1530 1532 1535 1536 1537 1538 1538 1537 1537 1536 1535 1535 1534 1533 1532 1532 1531 1530 1530 1528
1542 1540 1539 1537 1535 1535 1534 1533 1532 1531 1529 1529 1528 1527 1526 1525 1525 1525 1526 1526 1527 1527 1528 1529 1530 1533 1535 1535 1536 1537 1536 1536 1536 1536 1535 1535 1534 1532 1532 1531 1531 1530 1530
1543 1542 1541 1540 1538 1538 1537 1536 1535 1534 1533 1531 1531 1530 1528 1527 1527 1527 1527 1526 1526 1526 1527 1529 1531 1532 1534 1535 1535 1536 1536 1536 1536 1535 1535 1535 1534 1533 1532 1532 1531 1530 1529
1545 1544 1543 1541 1541 1540 1539 1539 1538 1537 1535 1534 1533 1532 1531 1530 1529 1529 1529 1528 1528 1528 1528 1530 1531 1533 1533 1534 1535 1536 1536 1536 1536 1536 1535 1535 1534 1533 1532 1532 1532 1531 1530
1546 1544 1544 1543 1543 1543 1541 1540 1540 1539 1538 1537 1536 1536 1535 1534 1533 1532 1531 1531 1530 1530 1531 1532 1533 1534 1535 1536 1536 1535 1536 1536 1537 1535 1535 1536 1535 1535 1534 1534 1533 1533 1533
1546 1545 1544 1544 1544 1544 1543 1543 1543 1542 1541 1540 1540 1539 1538 1537 1536 1535 1534 1534 1533 1533 1533 1533 1535 1536 1537 1537 1537 1536 1536 1536 1536 1536 1536 1536 1536 1535 1535 1535 1534 1534 1533
1545 1546 1544 1544 1544 1545 1544 1545 1544 1544 1543 1542 1541 1541 1541 1540 1539 1538 1538 1536 1536 1535 1535 1535 1535 1536 1537 1537 1537 1537 1536 1536 1537 1536 1536 1536 1536 1535 1535 1535 1535 1534 1534
1544 1545 1545 1544 1544 1545 1545 1546 1546 1545 1544 1544 1543 1543 1543 1543 1542 1541 1541 1539 1538 1537 1537 1538 1538 1538 1539 1538 1538 1537 1537 1537 1537 1536 1536 1536 1536 1536 1536 1536 1536 1536 1535
1542 1542 1545 1545 1545 1545 1545 1546 1546 1547 1547 1545 1545 1545 1545 1544 1544 1543 1543 1542 1541 1541 1540 1540 1540 1540 1540 1539 1538 1537 1537 1536 1536 1536 1535 1536 1536 1536 1537 1537 1536 1536 1536